Ainsworth, NE

4:58 AM CDT on August 18, 2017 (GMT -0500)
Ainsworth Municipal

Weather History for KANW - December, 2013

Change the Weather History Date:

Saturday, December 28, 2013

  Actual Average Record
Temperature  
Mean Temperature 28 °F -  
Max Temperature 49 °F 35 °F 60 °F (2002)
Min Temperature 7 °F 14 °F 0 °F (1996)
Degree Days  
Heating Degree Days 36    
Moisture  
Dew Point 22 °F    
Average Humidity 65    
Maximum Humidity 77    
Minimum Humidity 44    
Precipitation  
Precipitation 0.00 in - - ()
Sea Level Pressure  
Sea Level Pressure 29.96 in    
Wind  
Wind Speed 17 mph (WNW)    
Max Wind Speed 38 mph    
Max Gust Speed 51 mph    
Visibility 10 miles    
Events Snow    
Averages and records for this station are not official NWS values.
T = Trace of Precipitation, MM = Missing Value Source: NWS Daily Summary

Daily Weather History Graph

Daily Weather History Graph

Search for Another Location

Airport or City:

Trip Planner

Search our weather history database for the weather conditions in past years. The results will help you decide how hot, cold, wet, or windy it might be!

Date:

Astronomy

Dec. 28, 2013 Rise Set
Actual Time 8:09 AM CST 5:14 PM CST
Civil Twilight 7:37 AM CST 5:46 PM CST
Nautical Twilight 7:01 AM CST 6:21 PM CST
Astronomical Twilight 6:27 AM CST 6:56 PM CST
Moon 3:45 AM CST (12/28) 2:08 PM CST (12/28)
Length of Visible Light 10h 09m
Length of Day
9h 04m
Waning Crescent, 19% of the Moon is Illuminated
Dec 28
Waning Crescent
Jan 1
New
Jan 7
First Quarter
Jan 15
Full
Jan 23
Last Quarter

Hourly Weather History & Observations

Time (CST) Temp. Windchill Dew Point Humidity Pressure Visibility Wind Dir Wind Speed Gust Speed Precip Events Conditions
12:15 AM 38.5 °F 32.1 °F 30.0 °F 72% 29.96 in 10.0 mi SSW 9.2 mph - N/A   Clear
12:35 AM 37.9 °F 30.9 °F 30.0 °F 73% 29.95 in 10.0 mi SSW 10.4 mph - N/A   Clear
12:55 AM 38.5 °F 31.6 °F 30.2 °F 72% 29.94 in 10.0 mi SW 10.4 mph - N/A   Clear
1:15 AM 38.5 °F 31.6 °F 30.0 °F 72% 29.92 in 10.0 mi SW 10.4 mph - N/A   Clear
1:35 AM 38.3 °F 31.9 °F 29.8 °F 72% 29.91 in 10.0 mi SW 9.2 mph - N/A   Clear
1:55 AM 37.4 °F 30.8 °F 29.7 °F 74% 29.91 in 10.0 mi SW 9.2 mph - N/A   Clear
2:15 AM 37.4 °F 32.1 °F 29.1 °F 72% 29.90 in 10.0 mi SSW 6.9 mph - N/A   Clear
2:35 AM 36.3 °F 29.5 °F 29.3 °F 76% 29.90 in 10.0 mi SSW 9.2 mph - N/A   Clear
2:55 AM 37.8 °F 31.3 °F 29.1 °F 71% 29.89 in 10.0 mi SSW 9.2 mph - N/A   Clear
3:15 AM 37.2 °F 30.6 °F 28.9 °F 72% 29.88 in 10.0 mi SSW 9.2 mph - N/A   Clear
3:35 AM 37.2 °F 30.6 °F 28.6 °F 71% 29.87 in 10.0 mi SSW 9.2 mph - N/A   Clear
3:55 AM 36.3 °F 28.9 °F 28.4 °F 73% 29.86 in 10.0 mi SSW 10.4 mph - N/A   Clear
4:15 AM 36.9 °F 30.7 °F 28.6 °F 72% 29.85 in 10.0 mi SSW 8.1 mph - N/A   Clear
4:35 AM 36.9 °F 29.6 °F 28.4 °F 71% 29.83 in 10.0 mi SSW 10.4 mph - N/A   Clear
4:55 AM 39.7 °F 31.9 °F 28.2 °F 63% 29.82 in 10.0 mi SSW 13.8 mph - N/A   Clear
5:15 AM 39.4 °F 31.8 °F 28.0 °F 64% 29.81 in 10.0 mi SSW 12.7 mph - N/A   Clear
5:35 AM 38.7 °F 30.9 °F 27.9 °F 65% 29.80 in 10.0 mi SW 12.7 mph - N/A   Clear
5:55 AM 39.2 °F 30.8 °F 27.9 °F 64% 29.79 in 10.0 mi SSW 15.0 mph - N/A   Clear
6:15 AM 40.3 °F 32.2 °F 27.5 °F 60% 29.78 in 10.0 mi SW 15.0 mph - N/A   Clear
6:35 AM 39.9 °F 32.5 °F 27.3 °F 61% 29.78 in 10.0 mi SSW 12.7 mph - N/A   Clear
6:55 AM 38.3 °F 30.9 °F 27.0 °F 64% 29.77 in 10.0 mi SW 11.5 mph - N/A   Clear
7:15 AM 39.4 °F 31.8 °F 27.1 °F 62% 29.77 in 10.0 mi SW 12.7 mph - N/A   Clear
7:35 AM 40.1 °F 32.7 °F 27.0 °F 59% 29.76 in 10.0 mi SW 12.7 mph - N/A   Clear
7:55 AM 40.5 °F 34.1 °F 27.0 °F 59% 29.77 in 10.0 mi WSW 10.4 mph - N/A   Clear
8:15 AM 40.1 °F 34.7 °F 27.0 °F 59% 29.76 in 10.0 mi SW 8.1 mph - N/A   Clear
8:35 AM 40.5 °F 35.1 °F 27.0 °F 59% 29.75 in 10.0 mi SSW 8.1 mph - N/A   Clear
8:55 AM 41.9 °F 36.9 °F 27.5 °F 57% 29.76 in 10.0 mi SW 8.1 mph - N/A   Clear
9:15 AM 44.8 °F 39.4 °F 28.0 °F 52% 29.75 in 10.0 mi WSW 10.4 mph - N/A   Clear
9:35 AM 46.9 °F - 27.5 °F 47% 29.76 in 10.0 mi West 11.5 mph - N/A   Clear
9:55 AM 46.4 °F 40.1 °F 28.4 °F 50% 29.76 in 10.0 mi West 15.0 mph - N/A   Clear
10:15 AM 46.4 °F 40.1 °F 29.1 °F 51% 29.77 in 10.0 mi West 15.0 mph - N/A   Clear
10:35 AM 47.8 °F - 27.7 °F 46% 29.78 in 10.0 mi West 18.4 mph 24.2 mph N/A   Clear
10:55 AM 48.2 °F - 28.2 °F 46% 29.78 in 10.0 mi WNW 18.4 mph - N/A   Clear
11:15 AM 49.3 °F - 28.0 °F 44% 29.80 in 10.0 mi WNW 18.4 mph 26.5 mph N/A   Clear
11:35 AM 48.9 °F - 27.7 °F 44% 29.81 in 10.0 mi NW 21.9 mph 27.6 mph N/A   Clear
11:55 AM 49.1 °F - 29.1 °F 46% 29.81 in 10.0 mi NW 24.2 mph 29.9 mph N/A   Clear
12:15 PM 48.4 °F - 29.1 °F 47% 29.83 in 10.0 mi NNW 29.9 mph 38.0 mph N/A   Clear
12:35 PM 48.2 °F - 29.8 °F 49% 29.83 in 10.0 mi NNW 24.2 mph 38.0 mph N/A   Clear
12:55 PM 48.6 °F - 30.2 °F 49% 29.83 in 10.0 mi NNW 24.2 mph 29.9 mph N/A   Clear
1:15 PM 48.2 °F - 28.8 °F 47% 29.84 in 10.0 mi NNW 29.9 mph 39.1 mph N/A   Clear
1:35 PM 47.1 °F - 29.7 °F 51% 29.85 in 10.0 mi NNW 34.5 mph 43.7 mph N/A   Clear
1:55 PM 45.5 °F 37.1 °F 30.7 °F 56% 29.87 in 10.0 mi NNW 23.0 mph 41.4 mph N/A   Clear
2:15 PM 43.7 °F 33.2 °F 30.4 °F 59% 29.88 in 10.0 mi NNW 32.2 mph 42.6 mph N/A   Clear
2:35 PM 42.4 °F 31.8 °F 30.9 °F 64% 29.90 in 10.0 mi NNW 29.9 mph 36.8 mph N/A   Clear
2:55 PM 40.3 °F 28.7 °F 29.5 °F 65% 29.92 in 10.0 mi NNW 31.1 mph 39.1 mph N/A   Clear
3:15 PM 37.6 °F 25.0 °F 28.0 °F 68% 29.93 in 10.0 mi NNW 31.1 mph 39.1 mph N/A   Clear
3:35 PM 36.1 °F 22.3 °F 27.7 °F 71% 29.96 in 10.0 mi NNW 35.7 mph 43.7 mph N/A   Mostly Cloudy
3:55 PM 32.0 °F 16.5 °F 24.4 °F 74% 29.99 in 10.0 mi NNW 35.7 mph 43.7 mph N/A   Overcast
4:15 PM 29.5 °F 12.9 °F 22.5 °F 75% 30.01 in 10.0 mi NNW 36.8 mph 46.0 mph N/A   Overcast
4:35 PM 26.4 °F 8.4 °F 19.9 °F 77% 30.03 in 10.0 mi NNW 38.0 mph 46.0 mph N/A   Overcast
4:55 PM 24.8 °F 7.6 °F 18.3 °F 76% 30.06 in 10.0 mi NNW 31.1 mph 40.3 mph N/A   Overcast
5:15 PM 22.5 °F 5.2 °F 16.0 °F 76% 30.08 in 10.0 mi NNW 27.6 mph 43.7 mph N/A   Overcast
5:35 PM 21.0 °F 1.7 °F 14.4 °F 75% 30.09 in 10.0 mi NNW 34.5 mph 48.3 mph N/A   Overcast
5:55 PM 19.4 °F -1.1 °F 12.0 °F 73% 30.11 in 10.0 mi NNW 36.8 mph 44.9 mph N/A   Overcast
6:15 PM 18.5 °F -1.8 °F 11.7 °F 75% 30.13 in 10.0 mi NNW 34.5 mph 44.9 mph N/A Snow Light Snow
6:35 PM 17.4 °F -3.0 °F 10.6 °F 75% 30.14 in 7.0 mi NNW 33.4 mph 42.6 mph N/A Snow Light Snow
6:55 PM 16.7 °F -3.7 °F 9.9 °F 74% 30.15 in 10.0 mi NNW 32.2 mph 39.1 mph N/A Snow Light Snow
7:15 PM 14.9 °F -7.3 °F 7.5 °F 73% 30.17 in 10.0 mi NNW 36.8 mph 48.3 mph N/A   Overcast
7:35 PM 13.5 °F -8.7 °F 5.5 °F 71% 30.18 in 10.0 mi NNW 34.5 mph 50.6 mph N/A   Overcast
7:55 PM 12.7 °F -7.9 °F 5.4 °F 72% 30.19 in 10.0 mi NNW 27.6 mph 43.7 mph N/A   Overcast
8:15 PM 11.8 °F -11.5 °F 5.0 °F 74% 30.21 in 10.0 mi NNW 36.8 mph 42.6 mph N/A   Overcast
8:35 PM 11.5 °F -11.5 °F 3.9 °F 72% 30.22 in 10.0 mi NNW 34.5 mph 48.3 mph N/A   Overcast
8:55 PM 11.5 °F -11.2 °F 4.5 °F 73% 30.23 in 10.0 mi NNW 33.4 mph 38.0 mph N/A   Overcast
9:15 PM 11.3 °F -8.7 °F 4.5 °F 74% 30.24 in 10.0 mi NNW 24.2 mph 34.5 mph N/A   Overcast
9:35 PM 10.9 °F -10.6 °F 3.6 °F 72% 30.25 in 10.0 mi NNW 28.8 mph 33.4 mph N/A   Overcast
9:55 PM 10.4 °F -12.7 °F 3.0 °F 72% 30.27 in 10.0 mi NNW 33.4 mph 41.4 mph N/A   Overcast
10:15 PM 10.4 °F -11.4 °F 3.2 °F 73% 30.27 in 10.0 mi NNW 28.8 mph 41.4 mph N/A   Overcast
10:35 PM 10.4 °F -12.7 °F 3.2 °F 73% 30.28 in 10.0 mi NNW 33.4 mph 41.4 mph N/A   Overcast
10:55 PM 10.2 °F -11.9 °F 3.2 °F 73% 30.28 in 10.0 mi NNW 29.9 mph 38.0 mph N/A   Overcast
11:15 PM 10.0 °F -12.5 °F 3.2 °F 74% 30.29 in 10.0 mi North 31.1 mph 38.0 mph N/A   Overcast
11:35 PM 8.6 °F -14.1 °F 2.1 °F 75% 30.30 in 7.0 mi NNW 29.9 mph 38.0 mph N/A   Overcast
11:55 PM 7.7 °F -16.4 °F 1.2 °F 75% 30.31 in 10.0 mi NNW 33.4 mph 36.8 mph N/A   Overcast